Weather History for Beverly, MA

Change the Weather History Date:

Saturday, March 2, 2013

  Actual Average Record
Temperature  
Mean Temperature 36 °F -  
Max Temperature 43 °F 37 °F 64 °F (2004)
Min Temperature 30 °F 20 °F 9 °F (1980)
Degree Days  
Heating Degree Days 28    
Moisture  
Dew Point 26 °F    
Average Humidity 63    
Maximum Humidity 76    
Minimum Humidity 53    
Precipitation  
Precipitation 0.00 in - - ()
Sea Level Pressure  
Sea Level Pressure 29.63 in    
Wind  
Wind Speed 6 mph (NW)    
Max Wind Speed 9 mph    
Max Gust Speed -    
Visibility 10 miles    
Events Snow    
Averages and records for this station are not official NWS values.
T = Trace of Precipitation, MM = Missing Value Source: NWS Daily Summary

Daily Weather History Graph

Daily Weather History Graph

Search for Another Location

Airport:

Trip Planner

Search our weather history database for the weather conditions in past years. The results will help you decide how hot, cold, wet, or windy it might be!

Date:

Astronomy

Mar. 02, 2013 Rise Set
Actual Time 6:17 AM EST 5:34 PM EST
Civil Twilight 5:49 AM EST 6:03 PM EST
Nautical Twilight 5:16 AM EST 6:35 PM EST
Astronomical Twilight 4:43 AM EST 7:08 PM EST
Moon 11:19 PM EST (3/2) 8:35 AM EST (3/2)
Length of Visible Light 12h 14m
Length of Day
11h 17m
Waning Gibbous, 74% of the Moon is Illuminated
Mar 2
Waning Gibbous
Mar 4
Last Quarter
Mar 11
New
Mar 19
First Quarter
Mar 27
Full

Hourly Weather History & Observations

Time (EST) Temp. Windchill Dew Point Humidity Pressure Visibility Wind Dir Wind Speed Gust Speed Precip Events Conditions
12:53 AM 35.1 °F 29.3 °F 26.1 °F 70% 29.65 in 10.0 mi NW 6.9 mph - N/A   Overcast
1:53 AM 35.1 °F 30.1 °F 26.1 °F 70% 29.64 in 10.0 mi NW 5.8 mph - N/A   Overcast
2:53 AM 34.0 °F 28.8 °F 25.0 °F 70% 29.64 in 10.0 mi WNW 5.8 mph - N/A   Overcast
3:53 AM 33.1 °F 28.7 °F 25.0 °F 72% 29.64 in 10.0 mi NW 4.6 mph - N/A   Clear
4:53 AM 32.0 °F 27.5 °F 24.1 °F 73% 29.64 in 10.0 mi WNW 4.6 mph - N/A   Clear
5:53 AM 30.9 °F 26.2 °F 24.1 °F 76% 29.64 in 10.0 mi WNW 4.6 mph - N/A   Clear
7:53 AM 34.0 °F 27.2 °F 24.1 °F 67% 29.65 in 10.0 mi NW 8.1 mph - N/A   Scattered Clouds
8:53 AM 37.0 °F 31.0 °F 25.0 °F 62% 29.65 in 10.0 mi NW 8.1 mph - N/A   Scattered Clouds
9:53 AM 39.2 °F 35.0 °F 26.6 °F 61% 29.66 in 10.0 mi NW 5.8 mph - N/A   Mostly Cloudy
10:53 AM 39.0 °F 34.8 °F 26.1 °F 60% 29.65 in 10.0 mi NNW 5.8 mph - N/A   Overcast
11:53 AM 41.0 °F 35.8 °F 27.0 °F 57% 29.63 in 10.0 mi NNW 8.1 mph - N/A   Overcast
12:53 PM 41.0 °F 38.0 °F 27.0 °F 57% 29.61 in 10.0 mi Variable 4.6 mph - N/A   Overcast
1:53 PM 41.0 °F - 27.0 °F 57% 29.61 in 10.0 mi Calm Calm - N/A   Overcast
2:53 PM 42.1 °F 39.2 °F 27.0 °F 55% 29.61 in 10.0 mi NW 4.6 mph - N/A   Overcast
3:53 PM 43.0 °F 38.8 °F 27.0 °F 53% 29.60 in 10.0 mi Variable 6.9 mph - N/A   Overcast
4:53 PM 41.0 °F 36.4 °F 27.0 °F 57% 29.60 in 10.0 mi West 6.9 mph - N/A   Overcast
5:53 PM 39.9 °F 35.8 °F 26.1 °F 58% 29.61 in 10.0 mi WNW 5.8 mph - N/A   Overcast
6:53 PM 39.9 °F 35.8 °F 25.0 °F 55% 29.63 in 10.0 mi NW 5.8 mph - N/A   Overcast
7:53 PM 39.2 °F 34.2 °F 24.8 °F 56% 29.64 in 10.0 mi WNW 6.9 mph - N/A   Overcast
8:53 PM 37.0 °F 30.4 °F 25.0 °F 62% 29.65 in 10.0 mi NNW 9.2 mph - N/A   Overcast
9:53 PM 37.0 °F 31.0 °F 24.1 °F 59% 29.64 in 10.0 mi North 8.1 mph - N/A   Overcast
10:03 PM 37.4 °F 31.4 °F 24.8 °F 60% 29.64 in 6.0 mi NNW 8.1 mph - 0.00 in Snow Light Snow
10:53 PM 36.0 °F 29.0 °F 26.1 °F 67% 29.62 in 10.0 mi NW 9.2 mph - 0.00 in   Overcast
11:53 PM 35.1 °F 29.3 °F 25.0 °F 67% 29.62 in 10.0 mi NW 6.9 mph - N/A   Overcast